Location: Cruquius
(52.3348°N, 4.6319°E)
Time: 20:35:59
(UTC+00:00)

Cosmos 1515 - Pass Details

Date: 12 May 2021
Orbit: 506 x 513 km, 82.5° (Epoch: 20 June)

Event Time Altitude Azimuth Distance (km) Brightness Sun altitude
Exits shadow 21:47:26 28° 130° (SE) 972 4.5 -15.3°
Maximum altitude 21:48:35 35° 93° (E) 835 4.5 -15.4°
Drops below altitude 10° 21:52:04 10° 26° (NNE) 1,737 6.9 -15.7°
Sets 21:54:19 0° 18° (NNE) 2,630 8.0 -15.8°
